Погода в Инкоу

Китай     40°40′21″N   122°15′03″E
темп.,
°C
ветер,
м/с
пор.,
м/с
влажн.,
%
обл.,
%
осадки,
мм/ч
давл.,
гПа
погр.,
м
29 июня, ср
ср2923:00+21св238898 0.0 99881
02:00+20с3593100 0.0 99797
05:00+21ссв239352 0.0 99967
08:00+25ссз227816 0.0 1000500
11:00+26з337540 2.0 1001675
14:00+27з337111 3.8 1000827
17:00+27з33707 1.0 1001692
20:00+23юз22861 1.8 100330
30 июня, чт
чт3023:00+23ююз3388100 0.0 100439
02:00+22ю2390100 0.1 100447
05:00+21юв229449 0.0 100546
08:00+25юв1180100 0.0 1006427
11:00+27ююв22689 1.2 1006871
14:00+27ююз437525 7.6 1005591
17:00+26юз237925 6.9 1005211
20:00+24ююз228524 8.1 100519
1 июля, пт
пт123:00+22ю23920 0.0 100751
02:00+22ю22940 1.5 100747
05:00+21ююв249538 0.0 100894
08:00+24ююв2283100 0.0 1010452
11:00+27ю2471100 0.0 1009895
14:00+25ю6885100 3.7 1009436
17:00+23ююв2492100 7.9 1009188
20:00+22ю61090100 8.1 1009439
2 июля, сб
сб223:00+22ю3797100 3.5 1010338
02:00+21ю3897100 4.5 1009313
05:00+21ююв379747 0.0 1010235
08:00+23ююв4991100 0.1 1010466
11:00+25ю71074100 0.1 1010818
14:00+27ююз71072100 0.1 10091059
17:00+25ююз4981100 0.1 1008521
20:00+24ю488637 0.1 1008231
3 июля, вс
вс323:00+22ююв48901 0.0 1009175
02:00+21ююв499210 0.1 1008186
05:00+21ю499051 0.0 1008216
08:00+25ююз5874100 0.0 1008506
11:00+27юз686789 0.0 1008747
14:00+28юз686494 0.0 1006789
17:00+26юз4773100 0.0 1006310
20:00+23ююз348797 0.0 100567